Home > Weather > Port Angeles > Past weeks

Flag for USA Past Weather in Port Angeles, Washington, USA — Yesterday and Last 2 Weeks

Now
55 °F

Clear.


Feels Like: 53 °F
Forecast: 55 / 71 °F
Wind: 7 mph from West

Location: William R. Fairchild International Airport

Current Time: Jul 24, 2016 at 3:40:45 AM

Latest Report: Jul 24, 2016 at 2:53 AM


Visibility: 10 mi

Pressure: 30.18 "Hg

Humidity: 87%

Dew Point: 51 °F

Location of Port AngelesLocation

Past Weather in Port Angeles — Graph

°F

Port Angeles Temperature Yesterday

Maximum temperature yesterday: 67 °F (at 12:53 PM)
Minimum temperature yesterday: 56 °F (at 12:53 AM)
Average temperature yesterday: 61 °F

High & Low Weather Summary for the Past Weeks

 TemperatureHumidityPressure
High75 °F (Jul 21, 12:53 PM)97% (Jul 17, 6:53 AM)30.29 "Hg (Jul 17, 6:53 AM)
Low48 °F (Jul 15, 5:53 AM)45% (Jul 21, 1:53 PM)29.86 "Hg (Jul 9, 1:53 AM)
Average61 °F76%30.10 "Hg
* Reported Jul 9 1:53 AM — Jul 24 1:53 AM, Port Angeles, Weather by CustomWeather, © 2016

Note: Actual official high and low records may vary slightly from our data, if they occured in-between our weather recording intervals... More about our weather records

Advertising

Port Angeles Weather History for the Previous 24 Hours

Scroll right to see more
 ConditionsComfort  
Time TempWeatherWind HumidityBarometerVisibility
1:53 AM
Sun, Jul 24
55 °FClear.7 mph87%30.19 "Hg10 mi
12:53 AM55 °FClear.7 mph87%30.20 "Hg10 mi
11:53 PM
Sat, Jul 23
56 °FClear.7 mph84%30.21 "Hg10 mi
10:53 PM58 °FClear.9 mph78%30.23 "Hg10 mi
9:53 PM58 °FSunny.10 mph78%30.23 "Hg10 mi
8:53 PM60 °FSunny.10 mph69%30.23 "Hg10 mi
7:53 PM62 °FSunny.9 mph65%30.24 "Hg10 mi
6:53 PM64 °FSunny.7 mph63%30.24 "Hg10 mi
5:53 PM66 °FSunny.8 mph59%30.25 "Hg10 mi
4:53 PM65 °FSunny.10 mph59%30.26 "Hg10 mi
3:53 PM66 °FOvercast.8 mph61%30.27 "Hg10 mi
2:53 PM64 °FOvercast.14 mph63%30.29 "Hg10 mi
1:53 PM64 °FOvercast.12 mph65%30.28 "Hg10 mi
12:53 PM67 °FSunny.10 mph59%30.27 "Hg10 mi
11:53 AM66 °FSunny.8 mph63%30.27 "Hg10 mi
10:53 AM64 °FSunny.15 mph65%30.28 "Hg10 mi
9:53 AM64 °FPassing clouds.16 mph63%30.27 "Hg10 mi
8:53 AM64 °FPassing clouds.9 mph61%30.27 "Hg10 mi
7:53 AM62 °FSunny.6 mph67%30.26 "Hg10 mi
6:53 AM60 °FPassing clouds.7 mph72%30.26 "Hg10 mi
5:53 AM58 °FOvercast.7 mph75%30.26 "Hg10 mi
4:53 AM59 °FPartly cloudy.8 mph72%30.26 "Hg10 mi
4:04 AM58 °FOvercast.13 mph84%30.26 "Hg10 mi
3:53 AM58 °FMostly cloudy.14 mph84%30.27 "Hg10 mi
Weather by CustomWeather, © 2016

See weather overviewHow to use our weather pages